#timestamp,LO_Frequency,Hit,StdDev 
1596344415.9,286046996.4,N
1596344435.7,286046995.7,N
1596344455.5,286046995.5,N
1596344475.4,286046994.3,Y
1596344495.2,286046995.2,P
1596344515.1,286046997.3,P
1596344516.0,286046997.3,P
1596344535.8,286046995.2,Y
1596344555.6,286046999.6,P
1596344575.5,286046997.9,N
1596344595.3,286046995.5,P
1596344615.1,286046995.0,Y
1596344635.9,286046999.4,P
1596344655.7,286046997.8,N
1596344675.6,286046995.3,P
1596344695.4,286046996.4,N
1596344715.2,286046993.6,Y
1596344735.1,286046995.8,P
1596344736.0,286046995.8,P
1596344755.8,286046993.6,P
1596344775.7,286046993.9,Y
1596344795.5,286046996.8,P
1596344815.3,286046997.6,P
1596344835.2,286046993.8,P
1596344855.9,286046988.2,Y
1596344875.7,286046989.3,P
1596344895.6,286046990.4,N
1596344915.4,286046986.5,P
1596344935.3,286046984.3,Y
1596344955.1,286046995.6,P
1596344956.0,286046995.6,N
1596344975.8,286046997.8,N
1596344995.7,286046995.3,N
1596345015.5,286046992.5,Y
1596345035.3,286046996.7,P
1596345055.2,286046998.4,N
1596345075.0,286047002.6,N
1596345075.9,286047002.6,N
1596345095.8,286046999.5,N
1596345115.6,286046999.3,N
1596345135.4,286046996.6,N
1596345155.3,286046999.6,N
1596345175.1,286046998.7,N
1596345195.9,286046999.4,N
1596345215.7,286046998.6,N
1596345235.5,286047002.2,N
1596345255.4,286047002.2,N
1596345275.2,286047000.6,N
1596345295.0,286046998.5,N
1596345295.9,286046998.5,N
1596345315.8,286046997.0,N
1596345335.6,286046998.8,N
1596345355.5,286047000.6,N
1596345375.3,286047000.5,N
1596345395.1,286047000.7,N
1596345415.9,286046993.4,Y
1596345435.7,286046988.6,P
1596345455.6,286046986.4,N
1596345475.4,286046983.9,N
1596345495.2,286046978.9,Y
1596345515.1,286046986.9,P
1596345516.0,286046986.9,P
1596345535.8,286046988.3,P
1596345555.7,286046992.5,Y
1596345575.5,286046998.2,P
1596345595.3,286046997.6,N
1596345615.2,286046994.4,N
1596345635.0,286046990.4,N
1596345635.9,286046990.4,N
1596345655.7,286046991.1,N
1596345675.6,286046990.8,N
1596345695.4,286046988.8,Y
1596345715.3,286047000.0,P
1596345735.1,286047004.8,N
1596345755.8,286047008.3,N
1596345775.7,286047007.7,N
1596345795.5,286047010.2,N
1596345815.4,286047008.7,N
1596345835.2,286047008.9,N
1596345855.0,286047003.1,N
1596345855.9,286047003.1,N
1596345875.8,286047006.6,N
1596345895.6,286047010.7,N
1596345915.5,286047016.6,Y
1596345935.3,286047023.9,P
1596345955.1,286047022.3,N
1596345975.9,286047035.1,P
1596345995.7,286047035.6,Y
1596346015.5,286047006.4,P
1596346035.4,286047004.7,N
1596346055.2,286047004.5,N
1596346075.1,286047024.3,Y
1596346076.0,286047024.3,P
1596346095.8,286047017.0,N
1596346115.6,286047021.9,P
1596346135.5,286047029.2,Y
1596346155.3,286047012.3,P
1596346175.1,286047000.5,N
1596346195.9,286046993.5,N
1596346215.7,286046989.0,N
1596346235.6,286046990.6,N
1596346255.4,286046988.2,N
1596346275.2,286046983.8,N
1596346295.1,286046984.3,N
1596346296.0,286046984.3,N
1596346315.8,286046985.0,N
1596346335.7,286046984.5,N
1596346355.5,286046977.2,N
1596346375.3,286046977.9,N
1596346395.2,286046977.3,N
1596346415.9,286046983.1,N
1596346435.7,286046989.7,N
1596346455.6,286046996.9,N
1596346475.4,286046996.7,N
1596346495.3,286046998.6,N
1596346515.1,286047004.4,N
1596346516.0,286047004.4,N
1596346535.8,286046990.3,N
1596346555.7,286046983.9,N
1596346575.5,286046984.5,N
1596346595.3,286046986.6,N
1596346615.2,286046980.3,N
1596346635.0,286046974.7,N
1596346635.9,286046974.7,N
1596346655.8,286046975.6,N
1596346675.6,286046975.1,N
1596346695.4,286046972.0,N
1596346715.3,286046968.5,Y
1596346735.1,286046981.4,P
1596346755.9,286046985.2,P
1596346775.7,286046982.7,P
1596346795.5,286046981.4,Y
1596346815.4,286046997.9,P
1596346835.2,286046995.4,N
1596346855.0,286046994.9,N
1596346855.9,286046994.9,N
1596346875.8,286046996.5,N
1596346895.6,286046998.7,N
1596346915.5,286046995.6,N
1596346935.3,286046993.6,N
1596346955.1,286046996.0,N
1596346975.9,286046995.1,N
1596346995.7,286046996.1,N
1596347015.5,286046995.7,N
1596347035.4,286046996.6,N
1596347055.2,286046994.1,N
1596347075.1,286046993.5,N
1596347076.0,286046993.5,N
1596347095.8,286046993.4,N
1596347115.6,286046993.5,N
1596347135.5,286046993.3,N
1596347155.3,286046990.5,Y
1596347175.2,286046997.0,P
1596347195.9,286046994.3,P
1596347215.7,286046988.5,P
1596347235.6,286046986.1,Y
1596347255.4,286046985.3,P
1596347275.2,286046986.7,P
1596347295.1,286046988.0,P
1596347296.0,286046988.0,Y
1596347315.8,286047004.0,P
1596347335.7,286047004.0,N
1596347355.5,286046999.9,N
1596347375.3,286047004.6,N
1596347395.2,286047005.0,N
1596347415.0,286047005.7,N
1596347415.9,286047005.7,N
1596347435.7,286047000.6,N
1596347455.6,286046999.5,N
1596347475.4,286046997.8,N
1596347495.3,286046998.3,N
1596347515.1,286046993.7,N
1596347535.8,286046998.3,N
1596347555.7,286046995.9,N
1596347575.5,286046995.7,N
1596347595.4,286047000.3,N
1596347615.2,286047011.3,N
1596347635.0,286047022.6,Y
1596347635.9,286047022.6,P
1596347655.8,286047025.2,N
1596347675.6,286047024.1,N
1596347695.4,286047030.0,N
1596347715.3,286047031.0,Y
1596347735.1,286047008.3,P
1596347755.9,286047023.4,P
1596347775.7,286047027.0,P
1596347795.5,286047034.0,Y
1596347815.4,286047017.0,P
1596347835.2,286047015.3,P
1596347855.0,286047014.4,P
1596347856.0,286047014.4,Y
1596347875.8,286047005.3,P
1596347895.6,286047023.4,P
1596347915.5,286047023.8,P
1596347935.3,286047030.7,Y
1596347955.1,286047017.6,P
1596347975.9,286047013.2,P
1596347995.7,286047004.6,N
